www.pogodaiklimat.ru

АРХИВ ПОГОДЫ в Хьюстоне

Время (UTC), дата Ветер
(напр.,м/с)
 
Видим.   Явления Облачность Т
(С)
Тd
(С)
f
(%)
Тe
(С)
Тes
(С)
Комфортность

P
(гПа)

Po
(гПа)
Тmin
(С)
Tmax
(С)
R
(мм)
SD
(см)
11:53 18.08 штиль  16 км    5/2 600 м
[верхняя] 
+27.2  +26.7  97  +42  +42  опасность
перегрева 
1017.9  1015.8         
12:53 18.08 ЮЗ  16 км    5/2 660 м
[верхняя] 
+28.9  +26.7  88  +45  +46  опасность
перегрева 
1017.9  1015.8         
13:53 18.08 ЮЗ  16 км    8/5 540 м
[верхняя] 
+30.0  +26.0  79  +45  +46  опасность
перегрева 
1017.7  1015.5         
14:53 18.08 З  16 км    8/8 900 м  +31.1  +25.0  70  +45  +46  опасность
перегрева 
1017.7  1015.5         
15:53 18.08 З  4
{7} 
16 км    8/8 990 м  +32.2  +24.4  63  +44  +46  опасность
перегрева 
1017.1  1015.1         
16:53 18.08 Ю  16 км    5/5 1200 м  +33.3  +23.9  58  +45  +55  опасность
перегрева 
1016.4  1014.1         
17:53 18.08 З  16 км    5/5 1440 м  +35.0  +23.9  53  +47  +56  опасность
перегрева 
1015.7  1013.8         
18:53 18.08 ЮЗ  16 км    5/5 1500 м  +35.0  +23.3  51  +46  +54  опасность
перегрева 
  1012.8         
19:53 18.08 Ю  6
{10} 
16 км    8/8 1500 м  +34.4  +25.6  60  +49  +50  опасность
перегрева 
1014.0  1011.7         
20:53 18.08 Ю  16 км    5/5 1350 м  +33.9  +25.6  62  +49  +51  опасность
перегрева 
1013.3  1011.1         
21:53 18.08 Ю  16 км    8/5 1170 м
[верхняя] 
+33.3  +25.0  62  +47  +48  опасность
перегрева 
  1010.7         
22:53 18.08 Ю  16 км    8/5 1050 м
[верхняя] 
+32.2  +24.4  63  +44  +45  опасность
перегрева 
  1011.1  +32.2  +36.1     
23:53 18.08 Ю  14 км    8/5 900 м
[верхняя] 
+31.0  +24.0  66  +43  +43  опасность
перегрева 
1013.4  1011.4         
00:53 19.08 Ю  16 км    5/2 900 м
[верхняя] 
+29.4  +25.6  80  +43  +43  опасность
перегрева 
1013.6  1011.4         
01:53 19.08 Ю  16 км    2/0 7500 м
[верхняя] 
+28.3  +26.1  88  +43  +43  опасность
перегрева 
1014.0  1011.7         
02:53 19.08 ЮЗ  16 км    2/0 7500 м
[верхняя] 
+28.3  +26.1  88  +43  +43  опасность
перегрева 
1014.4  1012.4         
03:53 19.08 Ю  16 км    5/0 7500 м
[верхняя] 
+27.2  +26.1  94  +41  +41  опасность
перегрева 
1014.5  1012.4         
04:53 19.08 Ю  16 км    5/0 3000 м
[средняя верхняя] 
+27.0  +26.0  94  +40  +40  очень
душно 
1014.0  1011.7  +27.2       
05:53 19.08 Ю  16 км    5/2 1200 м
[средняя верхняя] 
+27.0  +26.0  94  +40  +40  очень
душно 
1013.6  1011.4         
06:53 19.08 ЮЗ  16 км    5/2 1050 м
[верхняя] 
+26.7  +26.1  97  +40  +40  очень
душно 
1013.1  1011.1         
07:53 19.08 Ю  16 км    5/5 900 м
[верхняя] 
+27.0  +26.0  94  +40  +40  очень
душно 
1013.1  1011.1         
08:53 19.08 Ю  16 км    5/2 900 м
[средняя верхняя] 
+26.0  +26.0  100  +39  +39  очень
душно 
1013.2  1011.1         
09:53 19.08 Ю  16 км    5/2 600 м
[средняя верхняя] 
+26.0  +26.0  100  +39  +39  очень
душно 
1013.3  1011.1         
10:53 19.08 Ю  16 км    5/2 600 м
[средняя верхняя] 
+26.0  +26.0  100  +39  +39  очень
душно 
1013.6  1011.4  +25.6  +27.2     
11:53 19.08 Ю  16 км    5/2 660 м
[средняя верхняя] 
+27.0  +26.0  94  +40  +40  очень
душно 
1014.1  1012.1         
12:53 19.08 ЮЗ  16 км    5/2 750 м
[средняя верхняя] 
+29.0  +26.0  84  +44  +44  опасность
перегрева 
1014.5  1012.4         
13:53 19.08 ЮЗ  16 км    5/5 720 м
[верхняя] 
+31.0  +25.0  70  +44  +45  опасность
перегрева 
1014.3  1012.1         
14:53 19.08 ЮЗ  16 км    5/5 900 м  +31.1  +25.0  70  +45  +46  опасность
перегрева 
1014.6  1012.4         
15:53 19.08 ЮЗ  16 км    5/5 1200 м
[верхняя] 
+33.3  +23.9  58  +45  +48  опасность
перегрева 
1014.5  1012.4         
16:53 19.08 ЮЗ  16 км    5/2 1410 м
[верхняя] 
+33.9  +23.3  54  +44  +49  опасность
перегрева 
1014.0  1011.7  +25.6  +34.4     
17:53 19.08 ЮЗ  5
{9} 
16 км    5/5 1350 м
[средняя верхняя] 
+34.0  +22.0  50  +43  +47  опасность
перегрева 
1013.2  1011.1         
18:53 19.08 Ю  16 км    5/5 1500 м
[средняя верхняя] 
+34.0  +23.0  53  +44  +48  опасность
перегрева 
1012.3  1010.1         
19:53 19.08 Ю  16 км    8/5 1500 м
[средняя верхняя] 
+34.0  +23.0  53  +44  +46  опасность
перегрева 
1011.7  1009.7         
20:53 19.08 Ю  4
{9} 
16 км    8/5 1410 м
[верхняя] 
+35.0  +23.9  53  +47  +50  опасность
перегрева 
1011.2  1009.0         
21:53 19.08 Ю  16 км    8/8 1500 м
[верхняя] 
+34.0  +24.0  56  +46  +46  опасность
перегрева 
1011.2  1009.0         
22:53 19.08 Ю  8
{10} 
16 км    8/5 1230 м
[средняя верхняя] 
+32.0  +24.0  63  +44  +44  опасность
перегрева 
1011.1  1009.0  +32.2  +36.1     
23:53 19.08 Ю  4
{8} 
16 км    8/2 1200 м
[средняя верхняя] 
+31.0  +23.0  62  +41  +41  опасность
перегрева 
1011.8  1009.7         
00:53 20.08 Ю  16 км    5/2 1200 м
[средняя верхняя] 
+29.0  +25.0  79  +42  +42  опасность
перегрева 
1012.6  1010.4         
01:53 20.08 Ю  16 км    5/2 1200 м
[верхняя] 
+29.0  +26.0  84  +44  +44  опасность
перегрева 
1013.6  1011.4         
02:53 20.08 Ю  16 км    5/2 600 м
[верхняя] 
+27.8  +26.1  90  +42  +42  опасность
перегрева 
1013.8  1011.7         
03:53 20.08 Ю  16 км    2/0 7500 м
[верхняя] 
+27.2  +26.1  94  +41  +41  опасность
перегрева 
1014.0  1012.1         
04:53 20.08 Ю  16 км    2/0 7500 м
[верхняя] 
+27.2  +25.6  91  +40  +40  очень
душно 
1014.2  1012.1         
05:53 20.08 Ю  16 км    ясно  +26.7  +26.1  97  +40  +40  очень
душно 
1014.3  1012.1         
06:53 20.08 Ю  16 км    2/0 7500 м
[верхняя] 
+26.7  +26.1  97  +40  +40  очень
душно 
1014.6  1012.4         
07:53 20.08 Ю  16 км    ясно  +26.7  +26.1  97  +40  +40  очень
душно 
1014.5  1012.4         
08:53 20.08 Ю  16 км    2/2 600 м
[верхняя] 
+26.1  +26.1  100  +39  +39  очень
душно 
1014.6  1012.4         
09:53 20.08 Ю  16 км    2/2 660 м
[верхняя] 
+26.1  +26.1  100  +39  +39  очень
душно 
1015.0  1012.8         
10:53 20.08 Ю  16 км    5/2 600 м
[средняя верхняя] 
+26.0  +26.0  100  +39  +39  очень
душно 
1015.4  1013.4  +26.1  +27.2     

 

Местоположение метеостанции Houston Hobby Airport: широта 29.6375 долгота -95.2825 высота над уровнем моря 14 м.

В архиве по умолчанию представлена погода в Хьюстоне за последние 1-2 суток. Обновление информации о фактической погоде в базе происходит ежечасно! Архивные данные за месяц целиком и за предыдущие месяцы Вы можете получить, выбрав интересующий диапазон дат из раскрывающегося списка и нажав кнопку "Ввод!".

Внимание! Архив погоды МЕТАР в базе сайта в настоящее время начинается c 1 января 2013 г. Нет смысла пытаться выбрать более раннюю дату.

Внимание! Время в таблицах - всемирное. Для получения местного времени необходимо прибавить поправку, которая в Хьюстоне равна -6 ч.

Ветер - указаны скорость ветра в м/с и направление, откуда дует ветер: С - северный, СВ - северо-восточный, В - восточный, ЮВ - юго-восточный, Ю - южный, ЮЗ - юго-западный, З - западный, СЗ - северо-западный.
Видимость - горизонтальная дальность видимости в метрах или километрах. При видимости от 1 до 10 км при отсутствии осадков обычно наблюдается дымка, при ухудшении видимости до 1 км и менее - туман. В сухую погоду видимость может ухудшаться дымом, пылью или мглою.
Атмосферные явления - указаны явления, наблюдавшиеся в указанный момент времени.
Облачность - указаны через наклонную черту верхняя и нижняя облачность в баллах и высота нижней границы облаков в метрах. Внимание: облачность, как и прочие метеорологические величины в США измеряются автоматическими метеостанциями. Указанные значения в баллах носят условный характер и показывают процент времени, в течение которого, в среднем, лазерный луч высотомера отражался от облаков обратно.
T - Температура воздуха - температура, измеренная на высоте 2 м над землей.
Td - Температура точки росы - температура, при понижении до которой содержащийся в воздухе водяной пар достигнет насыщения.
f - Относительная влажность воздуха - влажноcть воздуха, измеренная на высоте 2 м над землей.
Te - Эффективная температура - температура, которую ощущает одетый по сезону человек в тени. Характеристика душности погоды. При расчете учитывается влияние влажности воздуха и скорости ветра на теплоощущения человека.
Tes - Эффективная температура на солнце - температура, которую ощущает человек, с поправкой на солнечный нагрев. Характеристика знойности погоды. Зависит от высоты солнца над горизонтом, облачности и скорости ветра. Ночью, в пасмурную погоду, а также при ветре 12 м/с и более поправка равна нулю.
P - Атмосферное давление - приведенное к уровню моря атмосферное давление.
Po - Атмосферное давление - измеренное на уровне метеостанции атмосферное давление.
Tmin - Минимальная температура - минимум температуры воздуха на высоте 2 м над землей.
Tmax - Максимальная температура - максимум температуры воздуха на высоте 2 м над землей.
R - Количество осадков - Количество выпавших осадков за 3 или 6 часов, мм.
SD - Снежный покров - Высота снежного покрова, см.